Regional Weather Roundup
Issued by NWS

Home | Current Version | Previous Version | Text Only | Print | Product List | Glossary On
Versions: 1 2 3 4 5 6 7 8 9 10 11 12 13 14 15 16 17 18 19 20 21 22 23 24 25 26 27
000
ASCA42 TJSJ 260810
RWRPR
PUERTO RICO/U.S. VIRGIN ISLANDS HOURLY WEATHER ROUNDUP
NATIONAL WEATHER SERVICE SAN JUAN PR
400 AM AST WED APR 26 2017

PRZ001>002-007>008-010-260900-
PUERTO RICO

CITY           SKY/WX    TMP DP  RH WIND       PRES   REMARKS
SAN JUAN LMM   MOCLDY    81  75  83 CALM      29.90F
PONCE          MOCLDY    77  75  94 NE6       29.95
AGUADILLA      CLOUDY    73  72  94 E6        29.91F
CEIBA          MOCLDY    79  75  89 SE3       29.93F
$$

VIZ001>002-260900-
U.S. VIRGIN ISLANDS

CITY           SKY/WX    TMP DP  RH WIND       PRES   REMARKS
CHARLOTTE AMA  CLOUDY    79  75  89 E10       29.90F
CHRISTIANSTED  PTCLDY    79  73  83 E10       29.92S
$$

HOURLY WEATHER ROUNDUP FOR THE NEWS MEDIA

CITY           SKY/WX    TMP DP  RH WIND       PRES   REMARKS
ORLANDO        CLEAR     65  57  75 W3        29.85F
NEW YORK       LGT RAIN  55  54  96 N12       29.76F FOG
NEWARK         DRIZZLE   54  54 100 N14       29.76F FOG
CHICAGO        CLOUDY    67  54  63 S14       29.49F
HARTFORD       LGT RAIN  56  55  97 E12G22    29.87F
BOSTON         LGT RAIN  49  49 100 NE13      29.95F FOG
DALLAS         CLOUDY    76  68  76 S10G20    29.43R
PHILADELPHIA   LGT RAIN  56  54  93 NE17      29.71S
LOS ANGELES    MOCLDY    64  49  57 SE8       29.89S
WASHINGTON DC  CLOUDY    57  54  89 N10       29.72S



USA.gov is the U.S. government's official web portal to all federal, state and local government web resources and services.